Regional Weather Roundup
Issued by NWS Jackson, KY

Home | Current Version | Previous Version | Graphics & Text | Print | Product List | Glossary On
Versions: 1 2 3 4 5 6 7 8 9 10 11 12 13 14 15 16 17 18 19 20 21 22 23 24 25 26 27 28 29 30 31 32 33 34 35 36 37 38 39 40 41 42 43 44 45 46 47 48 49 50
000
ASUS43 KJKL 301010
RWRJKL

EAST KENTUCKY HOURLY WEATHER ROUNDUP
NATIONAL WEATHER SERVICE JACKSON KY
600 AM EDT TUE MAY 30 2017

NOTE: "FAIR" INDICATES FEW OR NO CLOUDS BELOW 12,000 FEET WITH
NO SIGNIFICANT WEATHER AND/OR OBSTRUCTIONS TO VISIBILITY.

* THESE REPORTS ARE NOT UNDER NWS QUALITY CONTROL AND MAY NOT
  REPORT WEATHER SUCH AS PRECIPITATION AND FOG.

KYZ079-080-083-085-087-088-110-112-115-119-120-301100
...EASTERN KENTUCKY...

CITY           SKY/WX    TMP DP  RH WIND       PRES   REMARKS
JACKSON        PTCLDY    62  60  93 CALM      30.05R
LONDON         CLOUDY    61  59  93 CALM      30.06S FOG
SOMERSET*      FOG       59  59 100 CALM      30.08R VSB 1
MONTICELLO*    MOCLDY    64  63  96 NE8       30.09R
WILLIAMSBURG*  CLOUDY    59  59 100 CALM      30.07S
MIDDLESBORO*   CLOUDY    60  60 100 CALM      30.09R
HARLAN APT*    CLOUDY    61  59  94 CALM      30.09R VSB 1/4
PIKE CO APT*     N/A     64  63  99 S3        30.06R
BIG SANDY APT* MOSUNNY   64  61  90 S3        30.04S
MOREHEAD APT*  CLOUDY    64  59  82 SW6       30.03S
ASHLAND*       CLOUDY    63  61  94 CALM      29.97S
$$

KYZ035-036-041-042-044-050-067-078-099-301100
...CENTRAL KENTUCKY...

CITY           SKY/WX    TMP DP  RH WIND       PRES   REMARKS
MT STERLING*   CLOUDY    63  61  94 W6        30.05R
FLEMING/MASON* CLOUDY    63  59  88 SW8       30.02R
DANVILLE*      MOCLDY    63  61  94 CALM      30.05S
LEXINGTON      MOCLDY    64  59  83 SW7       30.04R
FRANKFORT      MOCLDY    64  57  78 W5        30.01R
LOUISVILLE     PTCLDY    64  56  75 W10       30.02R
LEBANON*       PTSUNNY   66  59  77 S3        30.04R
GLASGOW*       CLOUDY    63  57  81 W3        30.05R
BOWLING GREEN  MOCLDY    66  60  81 SW7       30.05R
$$

KYZ091>093-OHZ055-061-077-WVZ005-015-034-035-042-301100
...SOUTHERN OHIO/WEST VIRGINIA...

CITY           SKY/WX    TMP DP  RH WIND       PRES   REMARKS
COVINGTON      PTCLDY    61  56  83 W6        30.00R
COLUMBUS       PTCLDY    60  56  86 CALM      29.95R
DAYTON         PTCLDY    55  53  93 W6        29.99R
WILMINGTON     CLEAR     59  57  93 CALM      29.98R
HUNTINGTON     PTCLDY    63  59  87 SW6       30.00R
CHARLESTON     CLOUDY    59  57  93 CALM      30.01R
PINEVILLE*     CLOUDY    57  56  97 MISG      30.12S
BECKLEY        CLOUDY    60  57  89 S3        30.09R
BLUEFIELD      PTCLDY    59  57  93 W3        30.11R
LOGAN CO APT*    N/A     61  59  94 CALM      30.05S
$$

VAZ002-007-008-TNZ017-027-036-066-071-301100
...SOUTHWEST VIRGINIA/EAST TENNESSEE...

CITY           SKY/WX    TMP DP  RH WIND       PRES   REMARKS
WISE*          CLOUDY    61  61 100 CALM      30.12R
JONESVILLE*    CLOUDY    63  63 100 CALM      30.10S
ABINGDON*      CLOUDY    63  63 100 CALM      30.10R FOG
BRISTOL        FOG       63  63 100 CALM      30.09R VSB 1/2
MORRISTOWN*    PTSUNNY   66  64  94 W9        30.08R
SEVIERVILLE*   PTSUNNY   63  61  94 CALM      30.09R
KNOXVILLE      CLOUDY    65  62  90 SW7       30.08R
LAFOLLETTE*    FOG       63  63 100 CALM      30.11R VSB 0
OAK RIDGE      MOCLDY    67  63  87 CALM      30.09R
CROSSVILLE     FOG       59  58  96 CALM      30.11S VSB 1
NASHVILLE      PTCLDY    66  64  93 S3        30.08R
$$

...KEY TO REMARKS...
VSB - VISIBILITY IN MILES
WCI - WIND CHILL INDEX
HX  - HEAT INDEX

$$



USA.gov is the U.S. government's official web portal to all federal, state and local government web resources and services.